Time,TemperatureF,DewpointF,PressureIn,WindDirection,WindDirectionDegrees,WindSpeedMPH,WindSpeedGustMPH,Humidity,HourlyPrecipIn,Conditions,Clouds,dailyrainin,SolarRadiationWatts/m^2,SoftwareType,DateUTC
2013-06-11 00:03:00,62.0,62.0,-100.00,ESE,116,0.0,2.0,100,0.00,,,0.01,0.000000,,2013-06-11 04:03:00,
2013-06-11 00:13:00,62.0,62.0,-100.00,ESE,116,0.0,2.0,100,0.00,,,0.01,0.000000,,2013-06-11 04:13:00,
2013-06-11 00:43:00,62.0,62.0,-100.00,ESE,114,0.0,0.0,100,0.00,,,0.01,0.000000,,2013-06-11 04:43:00,
2013-06-11 00:53:00,62.0,62.0,-100.00,ESE,114,0.0,0.0,100,0.00,,,0.01,0.000000,,2013-06-11 04:53:00,
2013-06-11 01:02:00,62.0,62.0,-100.00,ESE,114,0.0,0.0,100,0.00,,,0.01,0.000000,,2013-06-11 05:02:00,
2013-06-11 01:12:00,62.0,62.0,-100.00,ESE,114,0.0,0.0,100,0.00,,,0.01,0.000000,,2013-06-11 05:12:00,
2013-06-11 01:22:00,62.0,62.0,-100.00,ESE,114,0.0,0.0,100,0.00,,,0.01,0.000000,,2013-06-11 05:22:00,
2013-06-11 01:42:00,62.0,62.0,-100.00,ESE,121,0.0,0.0,100,0.00,,,0.01,0.000000,,2013-06-11 05:42:00,
2013-06-11 01:52:00,62.0,62.0,-100.00,ESE,121,0.0,0.0,100,0.00,,,0.01,0.000000,,2013-06-11 05:52:00,
2013-06-11 02:02:00,62.0,62.0,-100.00,ESE,121,0.0,0.0,100,0.00,,,0.01,0.000000,,2013-06-11 06:02:00,
2013-06-11 02:12:00,62.0,62.0,-100.00,ESE,121,0.0,0.0,100,0.00,,,0.01,0.000000,,2013-06-11 06:12:00,
2013-06-11 02:22:00,62.0,62.0,-100.00,ESE,121,0.0,0.0,100,0.00,,,0.01,0.000000,,2013-06-11 06:22:00,
2013-06-11 02:42:00,62.0,62.0,-100.00,ESE,120,0.0,0.0,100,0.00,,,0.01,0.000000,,2013-06-11 06:42:00,
2013-06-11 02:52:00,62.0,62.0,-100.00,ESE,120,0.0,0.0,100,0.00,,,0.01,0.000000,,2013-06-11 06:52:00,
2013-06-11 03:02:00,62.0,62.0,-100.00,ESE,120,0.0,0.0,100,0.00,,,0.01,0.000000,,2013-06-11 07:02:00,
2013-06-11 03:13:00,62.0,62.0,-100.00,ESE,120,0.0,0.0,100,0.00,,,0.01,0.000000,,2013-06-11 07:13:00,
2013-06-11 03:22:00,62.0,62.0,-100.00,ESE,120,0.0,0.0,100,0.00,,,0.01,0.000000,,2013-06-11 07:22:00,
2013-06-11 03:42:00,62.0,62.0,-100.00,SE,125,1.0,3.0,100,0.00,,,0.01,0.000000,,2013-06-11 07:42:00,
2013-06-11 03:52:00,62.0,62.0,-100.00,SE,125,1.0,3.0,100,0.00,,,0.01,0.000000,,2013-06-11 07:52:00,
2013-06-11 04:03:00,62.0,62.0,-100.00,SE,125,1.0,3.0,100,0.00,,,0.01,0.000000,,2013-06-11 08:03:00,
2013-06-11 04:12:00,62.0,62.0,-100.00,SE,125,1.0,3.0,100,0.00,,,0.01,0.000000,,2013-06-11 08:12:00,
2013-06-11 04:22:00,62.0,62.0,-100.00,SE,125,1.0,3.0,100,0.00,,,0.01,0.000000,,2013-06-11 08:22:00,
2013-06-11 04:42:00,62.0,62.0,-100.00,SSE,156,1.0,1.0,100,0.00,,,0.01,0.000000,,2013-06-11 08:42:00,
2013-06-11 04:52:00,62.0,62.0,-100.00,SSE,156,1.0,1.0,100,0.00,,,0.01,0.000000,,2013-06-11 08:52:00,
2013-06-11 05:02:00,62.0,62.0,-100.00,SSE,156,1.0,1.0,100,0.00,,,0.01,0.000000,,2013-06-11 09:02:00,
2013-06-11 05:12:00,62.0,62.0,-100.00,SSE,156,1.0,1.0,100,0.00,,,0.01,0.000000,,2013-06-11 09:12:00,
2013-06-11 05:22:00,62.0,62.0,-100.00,SSE,156,1.0,1.0,100,0.00,,,0.01,0.000000,,2013-06-11 09:22:00,
2013-06-11 05:23:00,62.0,62.0,-100.00,North,6,1.0,3.0,100,0.00,,,0.01,0.000000,,2013-06-11 09:23:00,
2013-06-11 05:43:00,62.0,62.0,-100.00,North,6,1.0,3.0,100,0.00,,,0.01,0.000000,,2013-06-11 09:43:00,
2013-06-11 05:53:00,62.0,62.0,-100.00,North,6,1.0,3.0,100,0.00,,,0.01,0.000000,,2013-06-11 09:53:00,
2013-06-11 06:03:00,62.0,62.0,-100.00,North,6,1.0,3.0,100,0.00,,,0.01,0.000000,,2013-06-11 10:03:00,
2013-06-11 06:12:00,62.0,62.0,-100.00,North,6,1.0,3.0,100,0.00,,,0.01,0.000000,,2013-06-11 10:12:00,
2013-06-11 06:43:00,64.0,64.0,-100.00,NNW,337,2.0,7.0,100,0.00,,,0.01,1.000000,,2013-06-11 10:43:00,
2013-06-11 06:52:00,64.0,64.0,-100.00,NNW,337,2.0,7.0,100,0.00,,,0.01,1.000000,,2013-06-11 10:52:00,
2013-06-11 07:02:00,64.0,64.0,-100.00,NNW,337,2.0,7.0,100,0.00,,,0.01,1.000000,,2013-06-11 11:02:00,
2013-06-11 07:12:00,64.0,64.0,-100.00,NNW,337,2.0,7.0,100,0.00,,,0.01,1.000000,,2013-06-11 11:12:00,
2013-06-11 07:22:00,64.0,64.0,-100.00,NNW,337,2.0,7.0,100,0.00,,,0.01,1.000000,,2013-06-11 11:22:00,
2013-06-11 07:42:00,65.0,65.0,-100.00,North,349,1.0,6.0,100,0.00,,,-99.99,15.000000,,2013-06-11 11:42:00,
2013-06-11 07:52:00,65.0,65.0,-100.00,North,349,1.0,6.0,100,0.00,,,-99.99,15.000000,,2013-06-11 11:52:00,
2013-06-11 08:02:00,65.0,65.0,-100.00,North,349,1.0,6.0,100,0.00,,,-99.99,15.000000,,2013-06-11 12:02:00,
2013-06-11 08:12:00,65.0,65.0,-100.00,North,349,1.0,6.0,100,0.00,,,-99.99,15.000000,,2013-06-11 12:12:00,
2013-06-11 08:22:00,65.0,65.0,-100.00,North,349,1.0,6.0,100,0.00,,,-99.99,15.000000,,2013-06-11 12:22:00,
2013-06-11 08:42:00,66.0,66.0,-100.00,NNW,327,2.0,8.0,100,0.00,,,-99.99,54.000000,,2013-06-11 12:42:00,
2013-06-11 08:52:00,66.0,66.0,-100.00,NNW,327,2.0,8.0,100,0.00,,,-99.99,54.000000,,2013-06-11 12:52:00,
2013-06-11 09:02:00,66.0,66.0,-100.00,NNW,327,2.0,8.0,100,0.00,,,-99.99,54.000000,,2013-06-11 13:02:00,
2013-06-11 09:12:00,66.0,66.0,-100.00,NNW,327,2.0,8.0,100,0.00,,,-99.99,54.000000,,2013-06-11 13:12:00,
2013-06-11 09:22:00,66.0,66.0,-100.00,NNW,327,2.0,8.0,100,0.00,,,-99.99,54.000000,,2013-06-11 13:22:00,
2013-06-11 09:42:00,68.0,68.0,-100.00,NW,321,2.0,9.0,100,0.00,,,0.01,117.000000,,2013-06-11 13:42:00,
2013-06-11 09:52:00,68.0,68.0,-100.00,NW,321,2.0,9.0,100,0.00,,,0.01,117.000000,,2013-06-11 13:52:00,
2013-06-11 10:02:00,68.0,68.0,-100.00,NW,321,2.0,9.0,100,0.00,,,0.01,117.000000,,2013-06-11 14:02:00,
2013-06-11 10:12:00,68.0,68.0,-100.00,NW,321,2.0,9.0,100,0.00,,,0.01,117.000000,,2013-06-11 14:12:00,
2013-06-11 10:22:00,68.0,68.0,-100.00,NW,321,2.0,9.0,100,0.00,,,0.01,117.000000,,2013-06-11 14:22:00,
2013-06-11 10:42:00,71.0,71.0,-100.00,NW,323,4.0,12.0,100,0.00,,,0.01,228.000000,,2013-06-11 14:42:00,
2013-06-11 10:53:00,71.0,71.0,-100.00,NW,323,4.0,12.0,100,0.00,,,0.01,228.000000,,2013-06-11 14:53:00,
2013-06-11 11:02:00,71.0,71.0,-100.00,NW,323,4.0,12.0,100,0.00,,,0.01,228.000000,,2013-06-11 15:02:00,
2013-06-11 11:12:00,71.0,71.0,-100.00,NW,323,4.0,12.0,100,0.00,,,0.01,228.000000,,2013-06-11 15:12:00,
2013-06-11 11:22:00,71.0,71.0,-100.00,NW,323,4.0,12.0,100,0.00,,,0.01,228.000000,,2013-06-11 15:22:00,
2013-06-11 11:43:00,71.0,71.0,-100.00,NW,325,2.0,9.0,100,0.00,,,0.01,164.000000,,2013-06-11 15:43:00,
2013-06-11 11:53:00,71.0,71.0,-100.00,NW,325,2.0,9.0,100,0.00,,,0.01,164.000000,,2013-06-11 15:53:00,
2013-06-11 12:03:00,71.0,71.0,-100.00,NW,325,2.0,9.0,100,0.00,,,0.01,164.000000,,2013-06-11 16:03:00,
2013-06-11 12:12:00,71.0,71.0,-100.00,NW,325,2.0,9.0,100,0.00,,,0.01,164.000000,,2013-06-11 16:12:00,
2013-06-11 12:22:00,71.0,71.0,-100.00,NW,325,2.0,9.0,100,0.00,,,0.01,164.000000,,2013-06-11 16:22:00,
2013-06-11 12:42:00,76.0,73.0,-100.00,North,8,2.0,7.0,90,0.00,,,0.00,602.000000,,2013-06-11 16:42:00,
2013-06-11 12:53:00,76.0,73.0,-100.00,North,8,2.0,7.0,90,0.00,,,0.00,602.000000,,2013-06-11 16:53:00,
2013-06-11 13:43:00,77.0,71.0,-100.00,NNW,337,3.0,9.0,82,0.00,,,0.00,692.000000,,2013-06-11 17:43:00,
2013-06-11 13:53:00,77.0,71.0,-100.00,NNW,337,3.0,9.0,82,0.00,,,0.00,692.000000,,2013-06-11 17:53:00,
2013-06-11 14:02:00,77.0,71.0,-100.00,NNW,337,3.0,9.0,82,0.00,,,0.00,692.000000,,2013-06-11 18:02:00,
2013-06-11 14:12:00,77.0,71.0,-100.00,NNW,337,3.0,9.0,82,0.00,,,0.00,692.000000,,2013-06-11 18:12:00,
2013-06-11 14:22:00,77.0,71.0,-100.00,NNW,337,3.0,9.0,82,0.00,,,0.00,692.000000,,2013-06-11 18:22:00,
2013-06-11 14:43:00,78.0,70.0,-100.00,NNW,331,3.0,10.0,77,0.00,,,0.00,654.000000,,2013-06-11 18:43:00,
2013-06-11 14:52:00,78.0,70.0,-100.00,NNW,331,3.0,10.0,77,0.00,,,0.00,654.000000,,2013-06-11 18:52:00,
2013-06-11 15:03:00,78.0,70.0,-100.00,NNW,331,3.0,10.0,77,0.00,,,0.00,654.000000,,2013-06-11 19:03:00,
2013-06-11 15:12:00,78.0,70.0,-100.00,NNW,331,3.0,10.0,77,0.00,,,0.00,654.000000,,2013-06-11 19:12:00,
2013-06-11 15:22:00,78.0,70.0,-100.00,NNW,331,3.0,10.0,77,0.00,,,0.00,654.000000,,2013-06-11 19:22:00,
2013-06-11 15:42:00,81.0,72.0,-100.00,NNW,328,4.0,10.0,73,0.00,,,0.00,653.000000,,2013-06-11 19:42:00,
2013-06-11 15:53:00,81.0,72.0,-100.00,NNW,328,4.0,10.0,73,0.00,,,0.00,653.000000,,2013-06-11 19:53:00,
2013-06-11 16:03:00,81.0,72.0,-100.00,NNW,328,4.0,10.0,73,0.00,,,0.00,653.000000,,2013-06-11 20:03:00,
2013-06-11 16:12:00,81.0,72.0,-100.00,NNW,328,4.0,10.0,73,0.00,,,0.00,653.000000,,2013-06-11 20:12:00,
2013-06-11 16:22:00,81.0,72.0,-100.00,NNW,328,4.0,10.0,73,0.00,,,0.00,653.000000,,2013-06-11 20:22:00,
2013-06-11 16:42:00,83.0,72.0,-100.00,NNW,339,3.0,7.0,70,0.00,,,0.00,642.000000,,2013-06-11 20:42:00,
2013-06-11 16:52:00,83.0,72.0,-100.00,NNW,339,3.0,7.0,70,0.00,,,0.00,642.000000,,2013-06-11 20:52:00,
2013-06-11 17:42:00,83.0,70.0,-100.00,NW,312,3.0,10.0,64,0.00,,,0.00,583.000000,,2013-06-11 21:42:00,
2013-06-11 17:53:00,83.0,70.0,-100.00,NW,312,3.0,10.0,64,0.00,,,0.00,583.000000,,2013-06-11 21:53:00,
2013-06-11 18:03:00,83.0,70.0,-100.00,NW,312,3.0,10.0,64,0.00,,,0.00,583.000000,,2013-06-11 22:03:00,
2013-06-11 18:12:00,83.0,70.0,-100.00,NW,312,3.0,10.0,64,0.00,,,0.00,583.000000,,2013-06-11 22:12:00,
2013-06-11 18:22:00,83.0,70.0,-100.00,NW,312,3.0,10.0,64,0.00,,,0.00,583.000000,,2013-06-11 22:22:00,
2013-06-11 18:42:00,84.0,69.0,-100.00,NNW,346,1.0,9.0,61,0.00,,,0.00,450.000000,,2013-06-11 22:42:00,
2013-06-11 18:52:00,84.0,69.0,-100.00,NNW,346,1.0,9.0,61,0.00,,,0.00,450.000000,,2013-06-11 22:52:00,
2013-06-11 19:02:00,84.0,69.0,-100.00,NNW,346,1.0,9.0,61,0.00,,,0.00,450.000000,,2013-06-11 23:02:00,
2013-06-11 19:12:00,84.0,69.0,-100.00,NNW,346,1.0,9.0,61,0.00,,,0.00,450.000000,,2013-06-11 23:12:00,
2013-06-11 19:22:00,84.0,69.0,-100.00,NNW,346,1.0,9.0,61,0.00,,,0.00,450.000000,,2013-06-11 23:22:00,
2013-06-11 19:42:00,78.0,69.0,-100.00,ENE,73,1.0,6.0,75,0.00,,,0.00,274.000000,,2013-06-11 23:42:00,
2013-06-11 19:52:00,78.0,69.0,-100.00,ENE,73,1.0,6.0,75,0.00,,,0.00,274.000000,,2013-06-11 23:52:00,
2013-06-11 20:02:00,78.0,69.0,-100.00,ENE,73,1.0,6.0,75,0.00,,,0.00,274.000000,,2013-06-12 00:02:00,
2013-06-11 20:12:00,78.0,69.0,-100.00,ENE,73,1.0,6.0,75,0.00,,,0.00,274.000000,,2013-06-12 00:12:00,
2013-06-11 20:22:00,78.0,69.0,-100.00,ENE,73,1.0,6.0,75,0.00,,,0.00,274.000000,,2013-06-12 00:22:00,
2013-06-11 20:42:00,72.0,72.0,-100.00,ESE,116,0.0,0.0,100,0.00,,,0.00,73.000000,,2013-06-12 00:42:00,
2013-06-11 20:52:00,72.0,72.0,-100.00,ESE,116,0.0,0.0,100,0.00,,,0.00,73.000000,,2013-06-12 00:52:00,
2013-06-11 21:42:00,70.0,70.0,-100.00,ESE,109,0.0,0.0,100,0.00,,,0.00,3.000000,,2013-06-12 01:42:00,
2013-06-11 21:52:00,70.0,70.0,-100.00,ESE,109,0.0,0.0,100,0.00,,,0.00,3.000000,,2013-06-12 01:52:00,
2013-06-11 22:02:00,70.0,70.0,-100.00,ESE,109,0.0,0.0,100,0.00,,,0.00,3.000000,,2013-06-12 02:02:00,
2013-06-11 22:12:00,70.0,70.0,-100.00,ESE,109,0.0,0.0,100,0.00,,,0.00,3.000000,,2013-06-12 02:12:00,
2013-06-11 22:22:00,70.0,70.0,-100.00,ESE,109,0.0,0.0,100,0.00,,,0.00,3.000000,,2013-06-12 02:22:00,
2013-06-11 22:42:00,69.0,69.0,-100.00,ESE,102,0.0,0.0,100,0.00,,,0.00,0.000000,,2013-06-12 02:42:00,
2013-06-11 22:52:00,69.0,69.0,-100.00,ESE,102,0.0,0.0,100,0.00,,,0.00,0.000000,,2013-06-12 02:52:00,
2013-06-11 23:02:00,69.0,69.0,-100.00,ESE,102,0.0,0.0,100,0.00,,,0.00,0.000000,,2013-06-12 03:02:00,
2013-06-11 23:12:00,69.0,69.0,-100.00,ESE,102,0.0,0.0,100,0.00,,,0.00,0.000000,,2013-06-12 03:12:00,
2013-06-11 23:22:00,69.0,69.0,-100.00,ESE,102,0.0,0.0,100,0.00,,,0.00,0.000000,,2013-06-12 03:22:00,
2013-06-11 23:23:00,68.0,68.0,-100.00,North,355,0.0,0.0,100,0.00,,,0.00,0.000000,,2013-06-12 03:23:00,
2013-06-11 23:43:00,68.0,68.0,-100.00,North,355,0.0,0.0,100,0.00,,,0.00,0.000000,,2013-06-12 03:43:00,
2013-06-11 23:53:00,68.0,68.0,-100.00,North,355,0.0,0.0,100,0.00,,,0.00,0.000000,,2013-06-12 03:53:00,